Location: Bad Dürkheim
(49.4618°N, 8.1724°E)
Time: 05:33:06
(UTC+00:00)

Terra - Pass Details

Date: 14 June 2025
Orbit: 689 x 692 km, 98.0° (Epoch: 12 July)

Event Time Altitude Azimuth Distance (km) Brightness Sun altitude
Rises 21:33:07 0° 212° (SSW) 3,055 4.8 -12.9°
Reaches altitude 10° 21:36:14 10° 235° (SW) 2,145 4.2 -13.1°
Maximum altitude 21:39:02 16° 272° (W) 1,795 4.3 -13.3°
Drops below altitude 10° 21:41:52 10° 309° (NW) 2,156 5.4 -13.5°
Sets 21:45:01 0° 331° (NNW) 3,080 7.1 -13.7°
